Погода в Братолюбовке

Погода в Братолюбовке : погода сейчас, прогноз погоды и архив. Всё, что Вы хотите узнать о погоде в Братолюбовке!

Поиск расширенной информации на нашем сайте:

Другие новости

Новости СМИ2

Главная страница сайта

Новости сайта

03.07.2017

Напоминаем, что на нашем специализированном сайте Метеоцентр.Азия вы можете получить высокодетализированные автоматические прогнозы погоды по пунктам России, СНГ и мира в авиационном формате (включающие направление и скорость ветра, видимость, явления погоды, количество и форму облачности, нижнюю и верхнюю границу облачности).

Рекомендуем: Перфоратор оптом купить оптом перфоратор lad-rostov.ru.

Погода в Братолюбовке - сегодня

Время (UTC), дата Ветер
(°,м/с) 
Видим.   Явления Облачность Т
(°С)
Тd
(°С)
f(%) Тe
(°С)
Pmin
(гПа)
dP
(гПа)
Po
(мм)
O2
(г/м3)
Тmin Tmax R s Состояние
почвы
09 09.12.17 тихо ()   35000 м    10/0 верхняя 
[Cs]
-24.4 -28.2 71 -24  1019.9  1.2  741  330           
12 09.12.17 360 (С) 50000 м    ясно 
-26.6 -29.8 74 -27  1021.2  0.9  742  333    -21.8       
15 09.12.17 350 (С) 50000 м    ясно 
-28.7 -32.2 72 -29  1021.7  0.2  742  336           
18 09.12.17 320 (СЗ) 50000 м    ясно 
-29.7 -33.2 72 -30  1021.9  0.1  742  337           
21 09.12.17 340 (С) 50000 м    3/0 верхняя 
[Ci fib]
-29.9 -33.5 71 -31  1021.7  -0.2  742  338           
00 10.12.17 010 (С) 20000 м    9/0 верхняя 
[Ci sp]
-29.4 -32.9 72 -30  1022.2  0.6  742  337  -31.6      равномерный
сухой снег
100% 
03 10.12.17 360 (С) 20000 м    8/0 верхняя 
[Ci fib]
-23.7 -28 68 -27  1020.8  -0.7  742  329           
06 10.12.17 360 (С) 20000 м    10/0 верхняя 
[Ci]
-21 -27.1 58 -24  1020.1  -0.4  742  325           
09 10.12.17 330 (СЗ) 50000 м    10/0 верхняя 
[Ci fib]
-24.8 -28.7 70 -25  1021.8  1.2  743  331           
12 10.12.17 тихо ()   50000 м    10/0 верхняя 
[Ci fib]
-26.2 -29.4 74 -26  1022.5  0.4  743  333    -20.8       
15 10.12.17 310 (СЗ) 50000 м    10/0 верхняя 
[Cs]
-26.2 -29.3 75 -27  1021.9  -0.6  742  333           
18 10.12.17 300 (СЗ) 50000 м    10/0 верхняя 
[Cs]
-24.6 -27.5 77 -25  1021.4  -0.3  742  330           
21 10.12.17 280 (З) 50000 м    10/0 верхняя 
[Cs]
-24.6 -27.6 76 -28  1021.1  -0.3  742  330           
00 11.12.17 300 (СЗ) 20000 м    10/0 средняя, верхняя 
[Ac trans|Cs]
-24.2 -27 78 -27  1020.9  0.1  742  330  -26.5      равномерный
сухой снег
100% 
03 11.12.17 340 (С) 20000 м    6/0 верхняя 
[Ci sp]
-16.8 -22.1 63 -19  1019  -0.8  741  320           
06 11.12.17 320 (СЗ) 20000 м    10/0 средняя 
[As trans]
-15.9 -22.1 59 -18  1018.4  -0.5  741  319           
09 11.12.17 320 (СЗ) 50000 м    10/0 средняя 
[As trans]
-17.8 -23.3 62 -20  1019  0.4  741  321           
12 11.12.17 320 (СЗ) 50000 м    10/0 средняя 
[As trans]
-18.1 -23.8 61 -21  1018.7  -0.3  741  321    -15.6       
15 11.12.17 320 (СЗ) 50000 м    10/0 средняя 
[As trans]
-19.9 -25.4 62 -23  1018.9  741  324           
18 11.12.17 340 (С) 50000 м    10/0 средняя 
[As trans]
-20 -26.1 58 -24  1018.4  -0.5  740  324           
21 11.12.17 340 (С) 50000 м    10/0 средняя 
[As trans]
-21.2 -27.1 59 -24  1019  0.4  741  325           
00 12.12.17 320 (СЗ) 20000 м    10/0 средняя 
[As trans]
-21.3 -26.9 61 -26  1019.6  0.6  741  326  -22.1      равномерный
сухой снег
100% 
03 12.12.17 340 (С) 20000 м    10/0 средняя 
[As op]
-19.1 -25.8 55 -23  1019.6  0.2  741  323           
06 12.12.17 320 (СЗ) 20000 м    10/0 средняя, верхняя 
[Ac trans|Cs]
-17.9 -24.7 55 -20  1020.5  742  322           
09 12.12.17 310 (СЗ) 50000 м    10/0 средняя 
[As trans]
-18.8 -24.7 60 -21  1022.4  1.8  743  323           
Время (UTC), дата Ветер
(°,м/с) 
Видим.   Явления Облачность Т
(°С)
Тd
(°С)
f(%) Тe
(°С)
Pmin
(гПа)
dP
(гПа)
Po
(мм)
O2
(г/м3)
Тmin Tmax R s Состояние
почвы

Для получения пояснительной информации подведите курсор к названию столбца.

ПОГОДА в Братолюбовке - архив

Всё, что Вы хотите узнать о погоде в Братолюбовке - удобно и подробно!

Выберите нужную дату (начиная с 1 января 2015* года) и нажмите кнопку "Найти".
Будут отображены архивные сводки погоды по пункту Братолюбовка, начиная с указанной даты.


Отображать данные в формате CSV (для использования в таблицах Excel)


Внимание! Наш архив погоды предназначен исключительно для личного некоммерческого использования в познавательных целях. Если Вам необходимы официальные справки о состоянии погоды (для производственных, юридических, коммерческих и т.п. целей), обращайтесь в органы Росгидромета.

*Примечание: данная дата относится к архиву по метеостанциям СССР (Россия, СНГ, Балтия).
Архив по метеостанциям Зарубежной Европы и Азии (кроме Китая) хранится 10 дней, по другим регионам земного шара (Китай, Африка, Америка, Австралия, Океания) - 1 день.

Братолюбовка - район местоположения метеостанции


Название, широта, долгота, высота метеостанции:
Братолюбовка 50.8°ш. 129.3°д. 227 м над ур. моря [Российская Федерация]

Дополнительная информация

В oтличие oт бoльшинства пoгoдных сайтoв мы публикуем пoдрoбную метеoинфoрмацию в детальнoм прoфессиoнальнoм фoрмате.

Характеристики температуры и влажнoсти вoздуха измеряются на высoте 2 м в тени вдали oт зданий и деревьев.
Скoрoсть ветра измеряется на высoте 10 м (на урoвне рoста челoвека скoрoсть ветра ниже в 1.5-2 раза). Если метеoстанция нахoдится в гoрoде или в лесу, тo скoрoсть ветра занижена на 2-4 м/с пo сравнению с oткрытым местoм. Скoрoсть ветра над акватoриями крупных рек и oзёр, а также на вершинах хoлмoв на 2-5 м/с выше, чем в oбычных услoвиях.
Атмoсфернoе давление в разных тoчках местнoсти мoжет значительнo oтличаться oт давления на метеoстанции, в зависимoсти oт услoвий рельефа (при пoдъёме на 10 м давление пoнижается примернo на 1 мм рт.ст.).